Hourly Data Report for July 22, 2021

LYNN LAKE
MANITOBA
Current Station Operator: NAVCAN

56°51'50.000" N
101°04'34.000" W
356.60 m
5061645
71078
YYL

Download Data

Hourly Data (July 2021)
Hourly Data Report for July 22, 2021
TIME
LST
Temp Definition
°C
Dew Point Definition
°C
Rel Hum Definition
%
Precip. Amount Definition
mm

Wind Dir Definition
10's deg

Wind Spd Definition
km/h
Visibility Definition
km
Stn Press Definition
kPa
Hmdx Definition


Wind Chill Definition


Weather Definition


00:00 17.4 13.6 78 0.0 14 11 2.0 97.30     Haze
01:00 16.2 13.7 85 0.0 12 9 2.0 97.24     Fog
02:00 16.8 14.5 86 0.0 13 13 2.0 97.18     Fog
03:00 16.1 14.5 90 0.0 13 11 1.6 97.15     Fog
04:00 16.3 14.9 91 0.0 12 11 1.2 97.13     Fog
05:00 16.3 15.4 94 0.0 14 11 0.8 97.10     Fog
06:00 16.8 15.8 94 0.0 14 11 0.8 97.12     Fog
07:00 17.5 16.4 93 0.0 12 17 0.6 97.03     Fog
08:00 19.1 17.2 88 0.0 15 17 0.6 96.99     Fog
09:00 20.6 17.6 83 0.0 16 21 0.8 96.92 26   Haze
10:00 20.8 17.5 81 0.0 16 26 1.2 96.88 26   Haze
11:00 21.5 17.9 80 0.0 15 22 1.2 96.83 27   Haze
12:00 22.7 18.1 75 0.0 15 34 1.2 96.73 29   Haze
13:00 23.7 18.3 71 0.0 16 22 2.0 96.67 30   Haze
14:00 22.2 18.0 77 0.0 16 24 2.8 96.60 28   Haze
15:00 22.9 18.4 75 0.0 18 17 2.8 96.58 29   Haze
16:00 22.7 18.3 76 0.0 16 22 3.6 96.52 29   Haze
17:00 22.1 18.4 79 0.0 15 22 3.6 96.43 28   Haze
18:00 21.3 18.9 86 0.0 16 15 3.6 96.33 28   Rain, Fog
19:00 21.4 19.1 87 0.0 19 18 4.0 96.30 28   Rain, Fog
20:00 20.7 18.2 86 0.2 22 13 4.8 96.29 27   Haze
21:00 19.0 17.2 89 0.0 18 8 6.4 96.17     Fog
22:00 18.4 16.9 91 0.0 24 5 8.1 96.16     Fog
23:00 17.8 15.3 85 0.0 8 9 16.1 95.96     LegendNANA

Notes on Data Quality.

Legend

  • E = Estimated
  • M = Missing
  • NA = Not Available*
  • [empty] = Indicates an unobserved value
Date modified: